Torna al catalogo

SL-16 DEB

AttivoLEO
NORAD 49051·DEBRIS·🇷🇺 Russia

Lanciato Dec 25, 1992 da Baikonur Cosmodrome

Loading…

Prossimi Passaggi (prossime 24 ore)

TLE

AggiornatoSource: Space-Track

Epoca: Sep 14, 2026, 13:41 UTC

1 49051U 92093LY  26257.57079007  .00000449  00000-0  25168-3 0  9991
2 49051  71.0235 327.4133 0005924 347.2187  12.8785 14.15996901 39305

Traccia SL-16 DEB in tempo reale con AllMySat

Download on the App Store